Time,TemperatureF,DewpointF,PressureIn,WindDirection,WindDirectionDegrees,WindSpeedMPH,WindSpeedGustMPH,Humidity,HourlyPrecipIn,Conditions,Clouds,dailyrainin,SolarRadiationWatts/m^2,SoftwareType,DateUTC
2013-08-09 00:00:00,63.0,54.0,-100.00,SW,225,1.0,-999.0,71,-99.99,,,-99.99,0.000000,,2013-08-09 04:00:00,
2013-08-09 00:43:00,63.0,54.0,-100.00,SW,225,1.0,-999.0,71,-99.99,,,-99.99,0.000000,,2013-08-09 04:43:00,
2013-08-09 00:53:00,63.0,54.0,-100.00,SW,225,1.0,-999.0,71,-99.99,,,-99.99,0.000000,,2013-08-09 04:53:00,
2013-08-09 01:00:00,62.0,54.0,-100.00,SW,225,0.0,-999.0,75,-99.99,,,-99.99,0.000000,,2013-08-09 05:00:00,
2013-08-09 01:33:00,62.0,54.0,-100.00,SW,225,0.0,-999.0,75,-99.99,,,-99.99,0.000000,,2013-08-09 05:33:00,
2013-08-09 01:43:00,62.0,54.0,-100.00,SW,225,0.0,-999.0,75,-99.99,,,-99.99,0.000000,,2013-08-09 05:43:00,
2013-08-09 01:52:00,62.0,54.0,-100.00,SW,225,0.0,-999.0,75,-99.99,,,-99.99,0.000000,,2013-08-09 05:52:00,
2013-08-09 02:00:00,60.0,55.0,-100.00,SW,225,0.0,-999.0,83,-99.99,,,-99.99,0.000000,,2013-08-09 06:00:00,
2013-08-09 02:43:00,60.0,55.0,-100.00,SW,225,0.0,-999.0,83,-99.99,,,-99.99,0.000000,,2013-08-09 06:43:00,
2013-08-09 02:52:00,60.0,55.0,-100.00,SW,225,0.0,-999.0,83,-99.99,,,-99.99,0.000000,,2013-08-09 06:52:00,
2013-08-09 03:00:00,59.0,55.0,-100.00,SW,225,0.0,-999.0,87,-99.99,,,-99.99,0.000000,,2013-08-09 07:00:00,
2013-08-09 03:33:00,59.0,55.0,-100.00,SW,225,0.0,-999.0,87,-99.99,,,-99.99,0.000000,,2013-08-09 07:33:00,
2013-08-09 03:43:00,59.0,55.0,-100.00,SW,225,0.0,-999.0,87,-99.99,,,-99.99,0.000000,,2013-08-09 07:43:00,
2013-08-09 03:53:00,59.0,55.0,-100.00,SW,225,0.0,-999.0,87,-99.99,,,-99.99,0.000000,,2013-08-09 07:53:00,
2013-08-09 04:00:00,57.0,54.0,-100.00,SW,225,0.0,-999.0,90,-99.99,,,-99.99,0.000000,,2013-08-09 08:00:00,
2013-08-09 04:43:00,57.0,54.0,-100.00,SW,225,0.0,-999.0,90,-99.99,,,-99.99,0.000000,,2013-08-09 08:43:00,
2013-08-09 04:53:00,57.0,54.0,-100.00,SW,225,0.0,-999.0,90,-99.99,,,-99.99,0.000000,,2013-08-09 08:53:00,
2013-08-09 05:00:00,55.0,53.0,-100.00,SW,225,0.0,-999.0,92,-99.99,,,-99.99,0.000000,,2013-08-09 09:00:00,
2013-08-09 05:43:00,55.0,53.0,-100.00,SW,225,0.0,-999.0,92,-99.99,,,-99.99,0.000000,,2013-08-09 09:43:00,
2013-08-09 05:52:00,55.0,53.0,-100.00,SW,225,0.0,-999.0,92,-99.99,,,-99.99,0.000000,,2013-08-09 09:52:00,
2013-08-09 06:00:00,54.0,52.0,-100.00,SW,225,0.0,-999.0,93,-99.99,,,-99.99,0.000000,,2013-08-09 10:00:00,
2013-08-09 06:43:00,54.0,52.0,-100.00,SW,225,0.0,-999.0,93,-99.99,,,-99.99,0.000000,,2013-08-09 10:43:00,
2013-08-09 06:53:00,54.0,52.0,-100.00,SW,225,0.0,-999.0,93,-99.99,,,-99.99,0.000000,,2013-08-09 10:53:00,
2013-08-09 07:00:00,53.0,52.0,-100.00,SW,225,0.0,-999.0,94,-99.99,,,-99.99,2.320000,,2013-08-09 11:00:00,
2013-08-09 07:43:00,53.0,52.0,-100.00,SW,225,0.0,-999.0,94,-99.99,,,-99.99,2.320000,,2013-08-09 11:43:00,
2013-08-09 07:53:00,53.0,52.0,-100.00,SW,225,0.0,-999.0,94,-99.99,,,-99.99,2.320000,,2013-08-09 11:53:00,
2013-08-09 08:00:00,56.0,53.0,-100.00,SW,225,0.0,-999.0,91,-99.99,,,-99.99,61.480000,,2013-08-09 12:00:00,
2013-08-09 08:43:00,56.0,53.0,-100.00,SW,225,0.0,-999.0,91,-99.99,,,-99.99,61.480000,,2013-08-09 12:43:00,
2013-08-09 08:52:00,56.0,53.0,-100.00,SW,225,0.0,-999.0,91,-99.99,,,-99.99,61.480000,,2013-08-09 12:52:00,
2013-08-09 09:00:00,62.0,55.0,-100.00,SW,225,1.0,-999.0,79,-99.99,,,-99.99,193.720001,,2013-08-09 13:00:00,
2013-08-09 09:43:00,62.0,55.0,-100.00,SW,225,1.0,-999.0,79,-99.99,,,-99.99,193.720001,,2013-08-09 13:43:00,
2013-08-09 09:52:00,62.0,55.0,-100.00,SW,225,1.0,-999.0,79,-99.99,,,-99.99,193.720001,,2013-08-09 13:52:00,
2013-08-09 10:00:00,68.0,56.0,-100.00,ESE,112,3.0,-999.0,65,-99.99,,,-99.99,331.760010,,2013-08-09 14:00:00,
2013-08-09 10:33:00,68.0,56.0,-100.00,ESE,112,3.0,-999.0,65,-99.99,,,-99.99,331.760010,,2013-08-09 14:33:00,
2013-08-09 10:43:00,68.0,56.0,-100.00,ESE,112,3.0,-999.0,65,-99.99,,,-99.99,331.760010,,2013-08-09 14:43:00,
2013-08-09 10:53:00,68.0,56.0,-100.00,ESE,112,3.0,-999.0,65,-99.99,,,-99.99,331.760010,,2013-08-09 14:53:00,
2013-08-09 11:00:00,72.0,56.0,-100.00,East,90,5.0,-999.0,58,-99.99,,,-99.99,451.239990,,2013-08-09 15:00:00,
2013-08-09 11:33:00,72.0,56.0,-100.00,East,90,5.0,-999.0,58,-99.99,,,-99.99,451.239990,,2013-08-09 15:33:00,
2013-08-09 11:44:00,72.0,56.0,-100.00,East,90,5.0,-999.0,58,-99.99,,,-99.99,451.239990,,2013-08-09 15:44:00,
2013-08-09 11:53:00,72.0,56.0,-100.00,East,90,5.0,-999.0,58,-99.99,,,-99.99,451.239990,,2013-08-09 15:53:00,
2013-08-09 12:00:00,73.0,57.0,-100.00,NE,45,5.0,-999.0,57,-99.99,,,-99.99,564.919983,,2013-08-09 16:00:00,
2013-08-09 12:43:00,73.0,57.0,-100.00,NE,45,5.0,-999.0,57,-99.99,,,-99.99,564.919983,,2013-08-09 16:43:00,
2013-08-09 12:53:00,73.0,57.0,-100.00,NE,45,5.0,-999.0,57,-99.99,,,-99.99,564.919983,,2013-08-09 16:53:00,
2013-08-09 13:00:00,73.0,56.0,-100.00,NNE,22,6.0,-999.0,54,-99.99,,,-99.99,546.359985,,2013-08-09 17:00:00,
2013-08-09 13:43:00,73.0,56.0,-100.00,NNE,22,6.0,-999.0,54,-99.99,,,-99.99,546.359985,,2013-08-09 17:43:00,
2013-08-09 13:52:00,73.0,56.0,-100.00,NNE,22,6.0,-999.0,54,-99.99,,,-99.99,546.359985,,2013-08-09 17:52:00,
2013-08-09 14:00:00,74.0,56.0,-100.00,North,0,7.0,-999.0,53,-99.99,,,-99.99,682.080017,,2013-08-09 18:00:00,
2013-08-09 14:43:00,74.0,56.0,-100.00,North,0,7.0,-999.0,53,-99.99,,,-99.99,682.080017,,2013-08-09 18:43:00,
2013-08-09 14:53:00,74.0,56.0,-100.00,North,0,7.0,-999.0,53,-99.99,,,-99.99,682.080017,,2013-08-09 18:53:00,
2013-08-09 15:00:00,75.0,56.0,-100.00,North,0,7.0,-999.0,52,-99.99,,,-99.99,639.159973,,2013-08-09 19:00:00,
2013-08-09 15:43:00,75.0,56.0,-100.00,North,0,7.0,-999.0,52,-99.99,,,-99.99,639.159973,,2013-08-09 19:43:00,
2013-08-09 15:52:00,75.0,56.0,-100.00,North,0,7.0,-999.0,52,-99.99,,,-99.99,639.159973,,2013-08-09 19:52:00,
2013-08-09 16:00:00,75.0,56.0,-100.00,West,270,8.0,-999.0,51,-99.99,,,-99.99,577.679993,,2013-08-09 20:00:00,
2013-08-09 16:43:00,75.0,56.0,-100.00,West,270,8.0,-999.0,51,-99.99,,,-99.99,577.679993,,2013-08-09 20:43:00,
2013-08-09 16:52:00,75.0,56.0,-100.00,West,270,8.0,-999.0,51,-99.99,,,-99.99,577.679993,,2013-08-09 20:52:00,
2013-08-09 17:00:00,75.0,57.0,-100.00,South,180,7.0,-999.0,53,-99.99,,,-99.99,524.320007,,2013-08-09 21:00:00,
2013-08-09 17:43:00,75.0,57.0,-100.00,South,180,7.0,-999.0,53,-99.99,,,-99.99,524.320007,,2013-08-09 21:43:00,
2013-08-09 17:52:00,75.0,57.0,-100.00,South,180,7.0,-999.0,53,-99.99,,,-99.99,524.320007,,2013-08-09 21:52:00,
2013-08-09 18:00:00,74.0,58.0,-100.00,South,180,6.0,-999.0,56,-99.99,,,-99.99,305.079987,,2013-08-09 22:00:00,
2013-08-09 18:43:00,74.0,58.0,-100.00,South,180,6.0,-999.0,56,-99.99,,,-99.99,305.079987,,2013-08-09 22:43:00,
2013-08-09 18:52:00,74.0,58.0,-100.00,South,180,6.0,-999.0,56,-99.99,,,-99.99,305.079987,,2013-08-09 22:52:00,
2013-08-09 19:00:00,75.0,59.0,-100.00,South,180,5.0,-999.0,56,-99.99,,,-99.99,278.399994,,2013-08-09 23:00:00,
2013-08-09 19:43:00,75.0,59.0,-100.00,South,180,5.0,-999.0,56,-99.99,,,-99.99,278.399994,,2013-08-09 23:43:00,
2013-08-09 19:52:00,75.0,59.0,-100.00,South,180,5.0,-999.0,56,-99.99,,,-99.99,278.399994,,2013-08-09 23:52:00,
2013-08-09 20:00:00,74.0,59.0,-100.00,South,180,3.0,-999.0,60,-99.99,,,-99.99,120.639999,,2013-08-10 00:00:00,
2013-08-09 20:43:00,74.0,59.0,-100.00,South,180,3.0,-999.0,60,-99.99,,,-99.99,120.639999,,2013-08-10 00:43:00,
2013-08-09 20:53:00,74.0,59.0,-100.00,South,180,3.0,-999.0,60,-99.99,,,-99.99,120.639999,,2013-08-10 00:53:00,
2013-08-09 21:00:00,71.0,60.0,-100.00,South,180,1.0,-999.0,68,-99.99,,,-99.99,19.719999,,2013-08-10 01:00:00,
2013-08-09 21:32:00,71.0,60.0,-100.00,South,180,1.0,-999.0,68,-99.99,,,-99.99,19.719999,,2013-08-10 01:32:00,
2013-08-09 21:43:00,71.0,60.0,-100.00,South,180,1.0,-999.0,68,-99.99,,,-99.99,19.719999,,2013-08-10 01:43:00,
2013-08-09 21:52:00,71.0,60.0,-100.00,South,180,1.0,-999.0,68,-99.99,,,-99.99,19.719999,,2013-08-10 01:52:00,
2013-08-09 22:00:00,68.0,61.0,-100.00,South,180,0.0,-999.0,76,-99.99,,,-99.99,1.160000,,2013-08-10 02:00:00,
2013-08-09 22:32:00,68.0,61.0,-100.00,South,180,0.0,-999.0,76,-99.99,,,-99.99,1.160000,,2013-08-10 02:32:00,
2013-08-09 22:42:00,68.0,61.0,-100.00,South,180,0.0,-999.0,76,-99.99,,,-99.99,1.160000,,2013-08-10 02:42:00,
2013-08-09 22:52:00,68.0,61.0,-100.00,South,180,0.0,-999.0,76,-99.99,,,-99.99,1.160000,,2013-08-10 02:52:00,
2013-08-09 23:00:00,66.0,61.0,-100.00,South,180,0.0,-999.0,83,-99.99,,,-99.99,0.000000,,2013-08-10 03:00:00,
2013-08-09 23:32:00,66.0,61.0,-100.00,South,180,0.0,-999.0,83,-99.99,,,-99.99,0.000000,,2013-08-10 03:32:00,
2013-08-09 23:42:00,66.0,61.0,-100.00,South,180,0.0,-999.0,83,-99.99,,,-99.99,0.000000,,2013-08-10 03:42:00,
2013-08-09 23:52:00,66.0,61.0,-100.00,South,180,0.0,-999.0,83,-99.99,,,-99.99,0.000000,,2013-08-10 03:52:00,